Weather History for KCRX - April, 2013

Change the Weather History Date:

Friday, April 26, 2013

  Actual Average Record
Temperature  
Mean Temperature 55 °F -  
Max Temperature 69 °F 76 °F 91 °F (1935)
Min Temperature 41 °F 50 °F 36 °F (1972)
Degree Days  
Heating Degree Days 10    
Growing Degree Days 5 (Base 50)    
Moisture  
Dew Point 43 °F    
Average Humidity 71    
Maximum Humidity 100    
Minimum Humidity 28    
Precipitation  
Precipitation 0.05 in - - ()
Sea Level Pressure  
Sea Level Pressure 30.31 in    
Wind  
Wind Speed 4 mph (ENE)    
Max Wind Speed 18 mph    
Max Gust Speed 23 mph    
Visibility 9 miles    
Events Fog , Rain , Thunderstorm    
Averages and records for this station are not official NWS values.
T = Trace of Precipitation, MM = Missing Value Source: NWS Daily Summary

Daily Weather History Graph

Daily Weather History Graph

Search for Another Location

Airport or City:

Trip Planner

Search our weather history database for the weather conditions in past years. The results will help you decide how hot, cold, wet, or windy it might be!

Date:

Astronomy

Apr. 26, 2013 Rise Set
Actual Time 6:08 AM CDT 7:35 PM CDT
Civil Twilight 5:42 AM CDT 8:02 PM CDT
Nautical Twilight 5:10 AM CDT 8:34 PM CDT
Astronomical Twilight 4:36 AM CDT 9:08 PM CDT
Moon 8:55 PM CDT (4/26) 6:38 AM CDT (4/26)
Length of Visible Light 14h 20m
Length of Day
13h 27m
Full, 99% of the Moon is Illuminated
Apr 26
Full
May 2
Last Quarter
May 9
New
May 17
First Quarter
May 24
Full

Hourly Weather History & Observations

Time (CDT) Temp. Windchill Dew Point Humidity Pressure Visibility Wind Dir Wind Speed Gust Speed Precip Events Conditions
12:15 AM 44.6 °F - 41.0 °F 87% 30.34 in 10.0 mi Calm Calm - N/A   Clear
12:35 AM 44.6 °F - 42.8 °F 93% 30.33 in 10.0 mi Calm Calm - N/A   Clear
12:55 AM 44.6 °F 43.1 °F 41.0 °F 87% 30.33 in 10.0 mi West 3.5 mph - N/A   Clear
1:15 AM 44.6 °F - 41.0 °F 87% 30.33 in 8.0 mi Calm Calm - N/A   Clear
1:35 AM 44.6 °F - 41.0 °F 87% 30.32 in 10.0 mi Calm Calm - N/A   Clear
1:55 AM 44.6 °F - 42.8 °F 93% 30.32 in 10.0 mi Calm Calm - N/A   Clear
2:15 AM 44.6 °F - 42.8 °F 93% 30.30 in 8.0 mi Calm Calm - N/A   Partly Cloudy
2:35 AM 44.6 °F - 42.8 °F 93% 30.31 in 10.0 mi Calm Calm - N/A   Clear
2:55 AM 44.6 °F - 42.8 °F 93% 30.30 in 9.0 mi Calm Calm - N/A   Clear
3:15 AM 44.6 °F - 42.8 °F 93% 30.31 in 8.0 mi Calm Calm - N/A   Clear
3:35 AM 44.6 °F - 41.0 °F 87% 30.30 in 4.0 mi Calm Calm - N/A   Clear
3:55 AM 44.6 °F - 41.0 °F 87% 30.31 in 9.0 mi Calm Calm - N/A   Clear
4:15 AM 42.8 °F - 41.0 °F 93% 30.31 in 10.0 mi Calm Calm - N/A   Clear
4:35 AM 42.8 °F - 41.0 °F 93% 30.32 in 10.0 mi Calm Calm - N/A   Clear
4:55 AM 42.8 °F 41.1 °F 41.0 °F 93% 30.32 in 3.0 mi NNE 3.5 mph - N/A   Clear
5:15 AM 41.0 °F - 41.0 °F 100% 30.33 in 8.0 mi Calm Calm - N/A   Partly Cloudy
5:35 AM 41.0 °F - 41.0 °F 100% 30.33 in 0.5 mi Calm Calm - N/A Fog Fog
5:55 AM 41.0 °F - 39.2 °F 93% 30.34 in 5.0 mi Calm Calm - N/A   Scattered Clouds
6:15 AM 41.0 °F - 39.2 °F 93% 30.34 in 5.0 mi Calm Calm - N/A   Clear
6:35 AM 41.0 °F - 39.2 °F 93% 30.34 in 3.0 mi Calm Calm - N/A   Clear
6:55 AM 41.0 °F 39.0 °F 41.0 °F 100% 30.34 in 7.0 mi ESE 3.5 mph - N/A   Clear
7:15 AM 44.6 °F - 41.0 °F 87% 30.35 in 0.2 mi Calm Calm - N/A Fog Fog
7:35 AM 46.4 °F - 44.6 °F 93% 30.36 in 9.0 mi Calm Calm - N/A   Partly Cloudy
7:55 AM 50.0 °F - 42.8 °F 76% 30.35 in 10.0 mi SSE 4.6 mph - N/A   Clear
8:15 AM 51.8 °F - 42.8 °F 71% 30.34 in 10.0 mi SSE 6.9 mph - N/A   Clear
8:35 AM 53.6 °F - 44.6 °F 72% 30.34 in 10.0 mi SE 6.9 mph - N/A   Clear
8:55 AM 55.4 °F - 42.8 °F 63% 30.36 in 10.0 mi ESE 5.8 mph - N/A   Clear
9:15 AM 57.2 °F - 42.8 °F 59% 30.38 in 10.0 mi SE 4.6 mph - N/A   Clear
9:35 AM 59.0 °F - 41.0 °F 51% 30.40 in 10.0 mi Calm Calm - N/A   Partly Cloudy
9:55 AM 59.0 °F - 42.8 °F 55% 30.40 in 10.0 mi NW 3.5 mph - N/A   Partly Cloudy
10:15 AM 64.4 °F - 39.2 °F 40% 30.39 in 10.0 mi East 5.8 mph - N/A   Clear
10:35 AM 64.4 °F - 37.4 °F 37% 30.39 in 10.0 mi ENE 5.8 mph - N/A   Clear
10:55 AM 64.4 °F - 37.4 °F 37% 30.37 in 10.0 mi East 9.2 mph - N/A   Clear
11:15 AM 66.2 °F - 37.4 °F 35% 30.37 in 10.0 mi ENE 5.8 mph - N/A   Clear
11:35 AM 66.2 °F - 35.6 °F 32% 30.36 in 10.0 mi ESE 10.4 mph - N/A   Clear
11:55 AM 68.0 °F - 37.4 °F 33% 30.34 in 10.0 mi ESE 12.7 mph 18.4 mph N/A   Partly Cloudy
12:15 PM 68.0 °F - 35.6 °F 30% 30.32 in 10.0 mi ESE 9.2 mph 18.4 mph N/A   Scattered Clouds
12:35 PM 68.0 °F - 37.4 °F 33% 30.31 in 10.0 mi East 13.8 mph - N/A   Scattered Clouds
12:55 PM 68.0 °F - 35.6 °F 30% 30.30 in 10.0 mi East 11.5 mph 17.3 mph N/A   Mostly Cloudy
1:15 PM 69.8 °F - 35.6 °F 28% 30.30 in 10.0 mi East 10.4 mph - N/A   Mostly Cloudy
1:35 PM 69.8 °F - 37.4 °F 31% 30.28 in 10.0 mi ESE 12.7 mph 16.1 mph N/A   Scattered Clouds
1:55 PM 68.0 °F - 35.6 °F 30% 30.28 in 10.0 mi East 10.4 mph - N/A   Mostly Cloudy
2:15 PM 68.0 °F - 37.4 °F 33% 30.29 in 10.0 mi ENE 5.8 mph - N/A   Mostly Cloudy
2:35 PM 66.2 °F - 37.4 °F 35% 30.30 in 10.0 mi ENE 4.6 mph - N/A Thunderstorm Overcast
2:55 PM 62.6 °F - 44.6 °F 52% 30.28 in 10.0 mi NNE 5.8 mph - N/A Rain , Thunderstorm Light Thunderstorms and Rain
3:15 PM 60.8 °F - 44.6 °F 55% 30.40 in 10.0 mi NW 15.0 mph - N/A Thunderstorm Overcast
3:35 PM 59.0 °F - 48.2 °F 67% 30.36 in 10.0 mi NNE 9.2 mph - N/A Rain , Thunderstorm Light Rain
3:55 PM 57.2 °F - 48.2 °F 72% 30.27 in 9.0 mi ENE 18.4 mph - N/A Rain Light Rain
4:15 PM 57.2 °F - 48.2 °F 72% 30.27 in 10.0 mi North 5.8 mph 23.0 mph N/A Rain Light Rain
4:35 PM 57.2 °F - 50.0 °F 77% 30.26 in 10.0 mi NNE 10.4 mph - N/A Rain Light Rain
4:55 PM 57.2 °F - 48.2 °F 72% 30.27 in 10.0 mi NNE 8.1 mph - N/A   Mostly Cloudy
5:15 PM 57.2 °F - 48.2 °F 72% 30.26 in 10.0 mi ENE 9.2 mph - N/A   Overcast
5:35 PM 59.0 °F - 48.2 °F 67% 30.24 in 10.0 mi ENE 6.9 mph - N/A   Mostly Cloudy
5:55 PM 59.0 °F - 46.4 °F 63% 30.23 in 10.0 mi East 11.5 mph - N/A Thunderstorm Mostly Cloudy
6:15 PM 59.0 °F - 46.4 °F 63% 30.23 in 10.0 mi ENE 10.4 mph - N/A   Overcast
6:35 PM 59.0 °F - 48.2 °F 67% 30.23 in 10.0 mi ENE 9.2 mph - N/A   Overcast
6:55 PM 57.2 °F - 48.2 °F 72% 30.25 in 10.0 mi NE 6.9 mph - N/A   Overcast
7:15 PM 57.2 °F - 48.2 °F 72% 30.23 in 10.0 mi ENE 5.8 mph - N/A Thunderstorm Overcast
7:35 PM 57.2 °F - 48.2 °F 72% 30.30 in 10.0 mi North 10.4 mph 17.3 mph N/A Rain , Thunderstorm Light Rain
7:55 PM 55.4 °F - 48.2 °F 77% 30.27 in 10.0 mi North - - N/A Thunderstorm Overcast
8:15 PM 55.4 °F - 48.2 °F 77% 30.25 in 10.0 mi East 9.2 mph - N/A   Overcast
8:35 PM 55.4 °F - 48.2 °F 77% 30.23 in 10.0 mi ESE 9.2 mph 16.1 mph N/A   Overcast
8:55 PM 55.4 °F - 48.2 °F 77% 30.27 in 10.0 mi East 6.9 mph - N/A Rain Light Rain
9:15 PM 55.4 °F - 46.4 °F 72% 30.28 in 10.0 mi NE 5.8 mph - N/A Thunderstorm Overcast
9:35 PM 55.4 °F - 48.2 °F 77% 30.26 in 10.0 mi East 6.9 mph - N/A Rain Light Rain
9:55 PM 55.4 °F - 48.2 °F 77% 30.25 in 10.0 mi East 6.9 mph - N/A Rain Light Rain
10:15 PM 53.6 °F - 48.2 °F 82% 30.31 in 10.0 mi North 9.2 mph - N/A Thunderstorm Overcast
10:35 PM 53.6 °F - 50.0 °F 88% 30.32 in 10.0 mi NNW 3.5 mph - 0.01 in Rain , Thunderstorm Light Rain
10:55 PM 53.6 °F - 50.0 °F 88% 30.29 in 5.0 mi NE 6.9 mph - 0.05 in Rain , Thunderstorm Rain
11:15 PM 53.6 °F - 48.2 °F 82% 30.26 in 10.0 mi East 9.2 mph - N/A Thunderstorm Overcast
11:35 PM 53.6 °F - 48.2 °F 82% 30.26 in 10.0 mi East 9.2 mph - N/A Thunderstorm Thunderstorm
11:55 PM 53.6 °F - 48.2 °F 82% 30.26 in 10.0 mi SSE 4.6 mph - N/A Thunderstorm Overcast